Regional Weather Roundup
Issued by NWS

Home | Current Version | Previous Version | Text Only | Print | Product List | Glossary On
Versions: 1 2 3 4 5 6 7 8 9 10 11 12 13 14 15 16 17 18 19 20 21 22 23 24 25 26 27 28 29 30 31 32 33 34 35 36 37 38 39 40 41 42 43 44 45 46 47 48 49 50
000
ASUS44 KMEG 251100
RWRTN
TENNESSEE HOURLY STATE WEATHER ROUNDUP
NATIONAL WEATHER SERVICE MEMPHIS TN
600 AM CDT SAT APR 25 2015

TNZ002-004-019-021-049-052-054-088>092-251200-
WEST TENNESSEE

CITY           SKY/WX    TMP DP  RH WIND       PRES   REMARKS
MEMPHIS INTL   CLOUDY    63  60  90 S7        29.68R
NWS MEMPHIS      N/A     61 N/A N/A MISG        N/A
JACKSON        CLOUDY    61  58  90 S14       29.67R
DYERSBURG      CLOUDY    57  45  62 CALM      29.67R
UNION CITY     MOCLDY    54  32  43 S3        29.65R
PARIS          CLOUDY    55  54  94 CALM      29.66R
LEXINGTON      MOCLDY    57  57 100 S7        29.65R
SAVANNAH       CLEAR     57  32  38 S6        29.68R
$$

TNZ008-025-027-028-033-062-065-066-251200-
NORTH MIDDLE TENNESSEE

CITY           SKY/WX    TMP DP  RH WIND       PRES   REMARKS
NASHVILLE      CLOUDY    58  56  93 S17       29.65F
CLARKSVILLE    CLOUDY    58  56  93 E5        29.67F
COOKEVILLE     MOCLDY    57  55  94 S7        29.77F
CROSSVILLE     CLOUDY    53  50  89 S7        29.80F
$$

TNZ061-075-076-078-094-096-097-251200-
SOUTH MIDDLE TENNESSEE

CITY           SKY/WX    TMP DP  RH WIND       PRES   REMARKS
FAYETTEVILLE   MOCLDY    54  54 100 S15       29.73F
TULLAHOMA      PTCLDY    54  54 100 S10       29.72F
WINCHESTER     CLOUDY    55  55 100 SE13      29.74F
MCMINNVILLE    MOCLDY    59  59 100 VRB3      29.73F
COLUMBIA       MOCLDY    57  32  38 S10       29.66R
SHELBYVILLE    PTCLDY    59  57  94 SE10      29.69F
$$

TNZ017-018-042-046-047-251200-
NORTHEAST TENNESSEE

CITY           SKY/WX    TMP DP  RH WIND       PRES   REMARKS
TRI CITIES     CLOUDY    52  41  66 CALM      29.86R
ELIZABETHTON   CLOUDY    50  36  57 CALM      29.87R
$$

TNZ012-013-036-069-073-074-251200-
CENTRAL EAST TENNESSEE

CITY           SKY/WX    TMP DP  RH WIND       PRES   REMARKS
KNOXVILLE      LGT RAIN  53  50  89 W8        29.84R
OAK RIDGE      RAIN      53  48  83 VRB3      29.87R
GATLINBURG     CLOUDY    48  45  87 CALM      29.87R
$$

TNZ083-085-099-251200-
SOUTHEAST TENNESSEE

CITY           SKY/WX    TMP DP  RH WIND       PRES   REMARKS
CHATTANOOGA    RAIN      53  51  93 SE6       29.86F FOG
$$

SKY/WX REPORTED AS FAIR MEANS FEW OR NO CLOUDS BELOW
12 THOUSAND FEET.




USA.gov is the U.S. government's official web portal to all federal, state and local government web resources and services.